SBI7520 FGSL-HELX

Flight info

Callsign SBI7520
Flight time N/A
Altitude 36000
Route FGSL N0448F370 MBO DLA POKVA UG857 FL UM863 KITOB M863 ASKOL L323 TONTU KHG M999 LXR HELX
Aircraft B738/M-SDGIWZ/S

Departure

Time 2026-04-17 10:58
Airport Malabo International Airport (FGSL)

Arrival

Time N/A
Airport Luxor International Airport (HELX)
Time Latitude Longitude Altitude Speed Heading
2026-04-17 10:41 3.75696 8.71447 85 ft 0 kts 129°
2026-04-17 10:55 3.75695 8.71449 85 ft 1 kts 110°
2026-04-17 10:55 3.75706 8.71460 85 ft 4 kts
2026-04-17 10:55 3.75745 8.71421 85 ft 11 kts 308°
2026-04-17 10:55 3.75822 8.71379 85 ft 15 kts 14°
2026-04-17 10:56 3.75924 8.71457 85 ft 21 kts 40°
2026-04-17 10:56 3.76045 8.71565 85 ft 24 kts 44°
2026-04-17 10:56 3.76181 8.71694 85 ft 29 kts 42°
2026-04-17 10:56 3.76322 8.71822 85 ft 23 kts 45°
2026-04-17 10:57 3.76438 8.71872 85 ft 17 kts 324°
2026-04-17 10:57 3.76492 8.71782 85 ft 14 kts 278°
2026-04-17 10:57 3.76444 8.71687 85 ft 27 kts 222°
2026-04-17 10:57 3.76116 8.71394 85 ft 96 kts 223°
2026-04-17 10:58 3.75465 8.70811 86 ft 153 kts 223°
2026-04-17 10:58 3.74562 8.69991 201 ft 188 kts 225°
2026-04-17 10:58 3.73569 8.69087 740 ft 198 kts 222°
2026-04-17 10:58 3.72519 8.68209 1507 ft 202 kts 222°
2026-04-17 10:59 3.71397 8.67277 1850 ft 223 kts 222°
2026-04-17 10:59 3.70142 8.66233 2159 ft 242 kts 222°
2026-04-17 10:59 3.69059 8.64984 2780 ft 242 kts 247°
2026-04-17 10:59 3.68837 8.63332 3370 ft 248 kts 283°
2026-04-17 11:00 3.69653 8.61820 3925 ft 256 kts 318°
2026-04-17 11:00 3.71237 8.61062 4682 ft 261 kts 352°
2026-04-17 11:00 3.73006 8.61337 5391 ft 268 kts 24°
2026-04-17 11:00 3.74409 8.62606 6011 ft 282 kts 58°
2026-04-17 11:01 3.75026 8.64443 6876 ft 282 kts 74°
2026-04-17 11:01 3.75458 8.66357 7532 ft 287 kts 73°
2026-04-17 11:01 3.75943 8.68309 8182 ft 289 kts 69°
2026-04-17 11:01 3.76720 8.70121 8961 ft 284 kts 57°
2026-04-17 11:02 3.77707 8.71818 9646 ft 285 kts 57°
2026-04-17 11:02 3.78436 8.73661 10187 ft 296 kts 76°
2026-04-17 11:02 3.78528 8.75815 10283 ft 321 kts 88°
2026-04-17 11:02 3.78551 8.78100 10362 ft 339 kts 82°
2026-04-17 11:03 3.78877 8.80488 10718 ft 347 kts 77°
2026-04-17 11:03 3.79329 8.82846 11261 ft 350 kts 76°
2026-04-17 11:03 3.79813 8.85235 11776 ft 353 kts 75°
2026-04-17 11:03 3.80319 8.87647 12402 ft 353 kts 75°
2026-04-17 11:04 3.80837 8.90066 12883 ft 356 kts 76°
2026-04-17 11:04 3.81355 8.92459 13483 ft 355 kts 76°
2026-04-17 11:04 3.81890 8.94905 13933 ft 359 kts 76°
2026-04-17 11:04 3.82419 8.97316 14418 ft 361 kts 76°
2026-04-17 11:05 3.82965 8.99798 14877 ft 363 kts 77°
2026-04-17 11:05 3.83504 9.02246 15303 ft 366 kts 77°
2026-04-17 11:05 3.84054 9.04738 15727 ft 368 kts 77°
2026-04-17 11:05 3.84605 9.07237 16126 ft 371 kts 77°
2026-04-17 11:06 3.85164 9.09773 16515 ft 374 kts 77°
2026-04-17 11:06 3.85723 9.12304 16891 ft 376 kts 77°
2026-04-17 11:06 3.86291 9.14879 17268 ft 379 kts 77°
2026-04-17 11:06 3.86861 9.17463 17631 ft 381 kts 77°
2026-04-17 11:07 3.87433 9.20058 17981 ft 384 kts 77°
2026-04-17 11:07 3.88007 9.22659 18329 ft 386 kts 77°
2026-04-17 11:07 3.88588 9.25292 18661 ft 388 kts 77°
2026-04-17 11:07 3.89170 9.27931 18989 ft 391 kts 77°
2026-04-17 11:08 3.89757 9.30592 19305 ft 393 kts 77°
2026-04-17 11:08 3.90343 9.33253 19613 ft 395 kts 77°
2026-04-17 11:08 3.90934 9.35933 19915 ft 397 kts 77°
2026-04-17 11:08 3.91528 9.38630 20206 ft 399 kts 76°
2026-04-17 11:09 3.92132 9.41371 20496 ft 401 kts 76°
2026-04-17 11:09 3.92728 9.44077 20773 ft 404 kts 76°
2026-04-17 11:09 3.93336 9.46837 21046 ft 406 kts 76°
2026-04-17 11:10 3.94552 9.52356 21567 ft 410 kts 76°
2026-04-17 11:10 3.95165 9.55141 21822 ft 411 kts 76°
2026-04-17 11:10 3.95780 9.57934 22069 ft 413 kts 76°
2026-04-17 11:10 3.96402 9.60758 22307 ft 415 kts 76°
2026-04-17 11:11 3.97025 9.63590 22547 ft 417 kts 76°
2026-04-17 11:11 3.97651 9.66437 22777 ft 419 kts 76°
2026-04-17 11:11 3.98338 9.69232 22987 ft 420 kts 71°
2026-04-17 11:11 3.99467 9.71940 23188 ft 421 kts 60°
2026-04-17 11:12 4.01143 9.74351 23420 ft 421 kts 47°
2026-04-17 11:12 4.03269 9.76330 23614 ft 422 kts 36°
2026-04-17 11:12 4.05725 9.77907 23857 ft 422 kts 29°
2026-04-17 11:12 4.08307 9.79328 24075 ft 423 kts 28°
2026-04-17 11:13 4.10853 9.80763 24241 ft 426 kts 30°
2026-04-17 11:13 4.13411 9.82234 24474 ft 426 kts 30°
2026-04-17 11:13 4.15998 9.83711 24666 ft 428 kts 29°
2026-04-17 11:13 4.18577 9.85175 24861 ft 429 kts 29°
2026-04-17 11:14 4.21165 9.86642 25047 ft 430 kts 29°
2026-04-17 11:14 4.23772 9.88120 25231 ft 432 kts 29°
2026-04-17 11:14 4.26396 9.89607 25408 ft 433 kts 29°
2026-04-17 11:14 4.28986 9.91074 25581 ft 434 kts 29°
2026-04-17 11:15 4.31630 9.92571 25747 ft 436 kts 29°
2026-04-17 11:15 4.34258 9.94059 25916 ft 437 kts 29°
2026-04-17 11:15 4.36881 9.95555 26073 ft 438 kts 30°
2026-04-17 11:15 4.39480 9.97150 26232 ft 440 kts 32°
2026-04-17 11:16 4.42058 9.98793 26370 ft 441 kts 32°
2026-04-17 11:16 4.44652 10.00430 26521 ft 442 kts 31°
2026-04-17 11:16 4.47272 10.02067 26674 ft 443 kts 31°
2026-04-17 11:16 4.49864 10.03686 26811 ft 444 kts 31°
2026-04-17 11:17 4.52499 10.05334 26955 ft 445 kts 31°
2026-04-17 11:17 4.55109 10.06966 27087 ft 447 kts 31°
2026-04-17 11:17 4.57735 10.08607 27223 ft 447 kts 31°
2026-04-17 11:17 4.60394 10.10267 27353 ft 449 kts 31°
2026-04-17 11:18 4.63031 10.11915 27482 ft 449 kts 31°
2026-04-17 11:18 4.65659 10.13556 27602 ft 450 kts 31°
2026-04-17 11:18 4.68315 10.15215 27724 ft 451 kts 31°
2026-04-17 11:18 4.70968 10.16872 27843 ft 452 kts 31°
2026-04-17 11:19 4.73632 10.18536 27957 ft 453 kts 31°
2026-04-17 11:19 4.76296 10.20199 28071 ft 454 kts 31°
2026-04-17 11:19 4.78971 10.21870 28179 ft 455 kts 31°
2026-04-17 11:19 4.81658 10.23549 28288 ft 456 kts 31°
2026-04-17 11:20 4.84303 10.25201 28391 ft 456 kts 31°
2026-04-17 11:20 4.87059 10.26923 28496 ft 457 kts 31°
2026-04-17 11:20 4.92429 10.30278 28692 ft 459 kts 31°
2026-04-17 11:21 4.97857 10.33671 28879 ft 460 kts 31°
2026-04-17 11:21 5.03298 10.37065 28973 ft 465 kts 32°
2026-04-17 11:22 5.08776 10.40490 29081 ft 469 kts 33°
2026-04-17 11:22 5.11552 10.42228 29240 ft 468 kts 34°
2026-04-17 11:22 5.14302 10.43948 29392 ft 467 kts 34°
2026-04-17 11:23 5.19788 10.47380 29601 ft 467 kts 34°
2026-04-17 11:23 5.22556 10.49112 29719 ft 467 kts 34°
2026-04-17 11:23 5.25280 10.50816 29801 ft 467 kts 34°
2026-04-17 11:24 5.28052 10.52550 29963 ft 466 kts 34°
2026-04-17 11:24 5.30763 10.54247 30074 ft 466 kts 34°
2026-04-17 11:24 5.33506 10.55963 30179 ft 466 kts 34°
2026-04-17 11:24 5.36255 10.57684 30298 ft 465 kts 34°
2026-04-17 11:25 5.38979 10.59389 30403 ft 465 kts 34°
2026-04-17 11:25 5.41713 10.61101 30510 ft 465 kts 34°
2026-04-17 11:25 5.44441 10.62808 30614 ft 465 kts 34°
2026-04-17 11:25 5.47183 10.64525 30718 ft 465 kts 34°
2026-04-17 11:26 5.49913 10.66235 30825 ft 464 kts 34°
2026-04-17 11:26 5.52651 10.67950 30933 ft 464 kts 34°
2026-04-17 11:26 5.55377 10.69657 31038 ft 464 kts 34°
2026-04-17 11:26 5.58094 10.71359 31141 ft 464 kts 34°
2026-04-17 11:27 5.60823 10.73068 31245 ft 464 kts 34°
2026-04-17 11:27 5.63570 10.74789 31347 ft 464 kts 34°
2026-04-17 11:27 5.68983 10.78250 31546 ft 463 kts 35°
2026-04-17 11:28 5.74367 10.81755 31754 ft 462 kts 35°
2026-04-17 11:28 5.77056 10.83497 31870 ft 462 kts 34°
2026-04-17 11:28 5.79749 10.85241 31973 ft 461 kts 34°
2026-04-17 11:29 5.82428 10.86977 32083 ft 461 kts 34°
2026-04-17 11:29 5.85096 10.88706 32186 ft 460 kts 34°
2026-04-17 11:29 5.87788 10.90451 32291 ft 460 kts 34°
2026-04-17 11:29 5.90466 10.92186 32393 ft 459 kts 34°
2026-04-17 11:30 5.95809 10.95648 32590 ft 458 kts 34°
2026-04-17 11:30 6.01115 10.99087 32780 ft 457 kts 34°
2026-04-17 11:31 6.06440 11.02539 32966 ft 456 kts 34°
2026-04-17 11:31 6.11745 11.05978 33129 ft 456 kts 33°
2026-04-17 11:32 6.17063 11.09428 33278 ft 455 kts 33°
2026-04-17 11:32 6.22363 11.12865 33421 ft 455 kts 33°
2026-04-17 11:33 6.27673 11.16311 33555 ft 455 kts 33°
2026-04-17 11:33 6.32936 11.19726 33689 ft 454 kts 33°
2026-04-17 11:34 6.38245 11.23172 33818 ft 454 kts 33°
2026-04-17 11:34 6.43530 11.26604 33943 ft 454 kts 33°
2026-04-17 11:35 6.48806 11.30030 34066 ft 453 kts 33°
2026-04-17 11:35 6.54086 11.33460 34185 ft 453 kts 33°
2026-04-17 11:36 6.59344 11.36876 34300 ft 453 kts 33°
2026-04-17 11:36 6.64609 11.40298 34411 ft 452 kts 33°
2026-04-17 11:37 6.69883 11.43727 34540 ft 452 kts 33°
2026-04-17 11:37 6.75126 11.47136 34650 ft 451 kts 33°
2026-04-17 11:38 6.80398 11.50565 34755 ft 451 kts 33°
2026-04-17 11:38 6.85644 11.53978 34858 ft 451 kts 33°
2026-04-17 11:39 6.90867 11.57377 35018 ft 449 kts 33°
2026-04-17 11:39 6.93473 11.59073 35157 ft 446 kts 33°
2026-04-17 11:39 6.96070 11.60764 35261 ft 445 kts 33°
2026-04-17 11:40 6.98651 11.62444 35374 ft 443 kts 33°
2026-04-17 11:40 7.01229 11.64123 35485 ft 441 kts 33°
2026-04-17 11:40 7.06339 11.67451 35629 ft 439 kts 33°
2026-04-17 11:41 7.11447 11.70778 35729 ft 438 kts 33°
2026-04-17 11:41 7.16545 11.74100 35829 ft 437 kts 33°
2026-04-17 11:42 7.21629 11.77414 35929 ft 436 kts 33°
2026-04-17 11:42 7.26671 11.80700 36028 ft 435 kts 33°
2026-04-17 11:43 7.31728 11.83999 36128 ft 434 kts 33°
2026-04-17 11:43 7.36802 11.87308 36229 ft 433 kts 33°
2026-04-17 11:44 7.41809 11.90575 36328 ft 432 kts 33°
2026-04-17 11:44 7.46836 11.93856 36428 ft 431 kts 33°
2026-04-17 11:45 7.51854 11.97132 36528 ft 430 kts 33°
2026-04-17 11:45 7.56869 12.00407 36628 ft 429 kts 33°
2026-04-17 11:46 7.61826 12.03645 36728 ft 428 kts 33°
2026-04-17 11:46 7.66794 12.06892 36828 ft 426 kts 33°
2026-04-17 11:47 7.71766 12.10141 36968 ft 424 kts 33°
2026-04-17 11:47 7.76685 12.13357 37000 ft 425 kts 33°
2026-04-17 11:48 7.81623 12.16586 37000 ft 426 kts 33°
2026-04-17 11:48 7.86604 12.19845 37000 ft 427 kts 33°
2026-04-17 11:49 7.91555 12.23084 37000 ft 428 kts 33°
2026-04-17 11:49 7.96559 12.26359 36999 ft 429 kts 33°
2026-04-17 11:50 8.01545 12.29624 37000 ft 430 kts 33°
2026-04-17 11:50 8.06524 12.32886 36999 ft 431 kts 33°
2026-04-17 11:51 8.11549 12.36180 37000 ft 431 kts 33°
2026-04-17 11:51 8.16577 12.39475 37000 ft 432 kts 33°
2026-04-17 11:52 8.21600 12.42768 36949 ft 434 kts 33°
2026-04-17 11:52 8.26650 12.46081 36895 ft 436 kts 33°
2026-04-17 11:53 8.31744 12.49423 36842 ft 437 kts 33°
2026-04-17 11:53 8.36833 12.52763 36830 ft 437 kts 33°
2026-04-17 11:54 8.41888 12.56082 36831 ft 437 kts 33°
2026-04-17 11:54 8.46985 12.59430 36831 ft 437 kts 33°
2026-04-17 11:55 8.52030 12.62745 36830 ft 437 kts 33°
2026-04-17 11:55 8.57141 12.66103 36831 ft 437 kts 33°
2026-04-17 11:56 8.62206 12.69433 36831 ft 437 kts 33°
2026-04-17 11:56 8.67263 12.72758 36831 ft 437 kts 33°
2026-04-17 11:57 8.72349 12.76104 36831 ft 437 kts 33°
2026-04-17 11:57 8.77437 12.79452 36831 ft 437 kts 33°
2026-04-17 11:58 8.82480 12.82772 36830 ft 437 kts 33°
2026-04-17 11:58 8.87582 12.86132 36831 ft 437 kts 33°
2026-04-17 11:59 8.92639 12.89463 36831 ft 437 kts 33°
2026-04-17 11:59 8.97720 12.92810 36830 ft 437 kts 34°
2026-04-17 12:00 9.02808 12.96164 36830 ft 438 kts 34°
2026-04-17 12:00 9.07908 12.99525 36830 ft 439 kts 32°
2026-04-17 12:01 9.13002 13.02876 36831 ft 441 kts 32°
2026-04-17 12:01 9.18148 13.06279 36831 ft 443 kts 32°
2026-04-17 12:02 9.23270 13.09661 36856 ft 443 kts 32°
2026-04-17 12:02 9.28450 13.13082 36859 ft 445 kts 32°
2026-04-17 12:03 9.33607 13.16489 36857 ft 446 kts 32°
2026-04-17 12:03 9.38791 13.19915 36857 ft 447 kts 32°
2026-04-17 12:04 9.43959 13.23331 36857 ft 448 kts 32°
2026-04-17 12:04 9.49162 13.26771 36858 ft 449 kts 32°
2026-04-17 12:05 9.54401 13.30237 36857 ft 449 kts 32°
2026-04-17 12:05 9.59591 13.33671 36858 ft 449 kts 32°
2026-04-17 12:06 9.64801 13.37117 36857 ft 449 kts 32°
2026-04-17 12:06 9.70019 13.40571 36858 ft 449 kts 32°
2026-04-17 12:07 9.75211 13.44008 36858 ft 449 kts 32°
2026-04-17 12:07 9.80418 13.47457 36857 ft 449 kts 32°
2026-04-17 12:08 9.85640 13.50917 36857 ft 448 kts 32°
2026-04-17 12:08 9.90845 13.54367 36858 ft 448 kts 32°
2026-04-17 12:09 9.96026 13.57803 36858 ft 448 kts 32°
2026-04-17 12:09 10.01215 13.61244 36858 ft 448 kts 32°
2026-04-17 12:10 10.06423 13.64701 36858 ft 448 kts 32°
2026-04-17 12:10 10.11620 13.68153 36858 ft 448 kts 32°
2026-04-17 12:11 10.16832 13.71618 36858 ft 448 kts 32°
2026-04-17 12:12 10.24637 13.76808 36858 ft 448 kts 32°
2026-04-17 12:12 10.29821 13.80258 36858 ft 448 kts 32°
2026-04-17 12:13 10.35020 13.83718 36858 ft 448 kts 32°
2026-04-17 12:13 10.40221 13.87181 36858 ft 448 kts 32°
2026-04-17 12:14 10.45421 13.90645 36858 ft 448 kts 32°
2026-04-17 12:14 10.50599 13.94097 36857 ft 448 kts 32°
2026-04-17 12:15 10.55805 13.97568 36858 ft 448 kts 32°
2026-04-17 12:15 10.60972 14.01014 36857 ft 448 kts 32°
2026-04-17 12:16 10.66189 14.04495 36858 ft 448 kts 32°
2026-04-17 12:16 10.71375 14.07957 36858 ft 448 kts 32°
2026-04-17 12:17 10.76570 14.11424 36857 ft 448 kts 32°
2026-04-17 12:17 10.81724 14.14866 37054 ft 444 kts 32°
2026-04-17 12:18 10.86898 14.18323 37046 ft 445 kts 32°
2026-04-17 12:18 10.92062 14.21775 37047 ft 446 kts 32°
2026-04-17 12:19 10.97236 14.25234 37047 ft 447 kts 32°
2026-04-17 12:19 11.02394 14.28685 37047 ft 445 kts 31°
2026-04-17 12:20 11.07540 14.32129 37047 ft 443 kts 31°
2026-04-17 12:20 11.12664 14.35560 37047 ft 443 kts 31°
2026-04-17 12:21 11.17788 14.38992 37047 ft 444 kts 31°
2026-04-17 12:21 11.22941 14.42444 37047 ft 444 kts 31°
2026-04-17 12:22 11.28096 14.45900 37047 ft 444 kts 31°
2026-04-17 12:22 11.33220 14.49336 37047 ft 444 kts 31°
2026-04-17 12:23 11.38364 14.52788 37047 ft 444 kts 31°
2026-04-17 12:23 11.43481 14.56223 37047 ft 444 kts 31°
2026-04-17 12:24 11.48637 14.59685 37047 ft 443 kts 31°
2026-04-17 12:24 11.53774 14.63137 37047 ft 443 kts 31°
2026-04-17 12:25 11.58887 14.66574 37047 ft 443 kts 31°
2026-04-17 12:25 11.64034 14.70035 37047 ft 443 kts 31°
2026-04-17 12:26 11.69141 14.73471 37047 ft 443 kts 31°
2026-04-17 12:26 11.74286 14.76933 37047 ft 443 kts 31°
2026-04-17 12:27 11.79414 14.80386 37047 ft 443 kts 31°
2026-04-17 12:27 11.84538 14.83838 37047 ft 443 kts 31°
2026-04-17 12:28 11.89650 14.87283 37047 ft 443 kts 31°
2026-04-17 12:28 11.94789 14.90748 37047 ft 443 kts 31°
2026-04-17 12:29 11.99911 14.94204 37047 ft 444 kts 31°
2026-04-17 12:29 12.05052 14.97673 37047 ft 444 kts 31°
2026-04-17 12:30 12.10164 15.01163 37045 ft 445 kts 35°
2026-04-17 12:30 12.14527 15.05649 37047 ft 449 kts 55°
2026-04-17 12:31 12.17239 15.11377 37046 ft 452 kts 66°
2026-04-17 12:31 12.19709 15.17285 37046 ft 452 kts 65°
2026-04-17 12:32 12.22199 15.23139 37047 ft 452 kts 65°
2026-04-17 12:32 12.24676 15.29050 37047 ft 452 kts 65°
2026-04-17 12:32 12.25903 15.31979 36813 ft 457 kts 65°
2026-04-17 12:33 12.27144 15.34946 36761 ft 451 kts 65°
2026-04-17 12:33 12.29596 15.40826 36750 ft 449 kts 65°
2026-04-17 12:34 12.32041 15.46692 36750 ft 451 kts 65°
2026-04-17 12:34 12.34484 15.52565 36749 ft 452 kts 65°
2026-04-17 12:35 12.36947 15.58489 36750 ft 453 kts 65°
2026-04-17 12:35 12.39394 15.64381 36749 ft 452 kts 65°
2026-04-17 12:37 12.49183 15.87998 36750 ft 452 kts 66°
2026-04-17 12:38 12.51617 15.93881 36750 ft 452 kts 66°
2026-04-17 12:38 12.54075 15.99824 36750 ft 452 kts 66°
2026-04-17 12:39 12.56510 16.05719 36750 ft 452 kts 66°
2026-04-17 12:39 12.58947 16.11620 36750 ft 452 kts 66°
2026-04-17 12:40 12.61382 16.17523 36749 ft 452 kts 66°
2026-04-17 12:40 12.63825 16.23447 36749 ft 451 kts 66°
2026-04-17 12:41 12.66247 16.29327 36750 ft 451 kts 66°
2026-04-17 12:41 12.68681 16.35241 36750 ft 451 kts 66°
2026-04-17 12:42 12.71122 16.41174 36750 ft 451 kts 66°
2026-04-17 12:42 12.73550 16.47079 36750 ft 451 kts 66°
2026-04-17 12:43 12.75980 16.52996 36750 ft 451 kts 66°
2026-04-17 12:43 12.78401 16.58893 36750 ft 451 kts 66°
2026-04-17 12:44 12.80823 16.64800 36750 ft 451 kts 66°
2026-04-17 12:44 12.83247 16.70712 36750 ft 451 kts 66°
2026-04-17 12:45 12.85666 16.76616 36750 ft 451 kts 66°
2026-04-17 12:45 12.88089 16.82537 36750 ft 451 kts 66°
2026-04-17 12:46 12.90519 16.88477 36750 ft 451 kts 66°
2026-04-17 12:46 12.92926 16.94368 36750 ft 451 kts 66°
2026-04-17 12:47 12.95343 17.00287 36750 ft 451 kts 66°
2026-04-17 12:47 12.97757 17.06203 36750 ft 450 kts 66°
2026-04-17 12:48 13.00156 17.12085 36750 ft 451 kts 66°
2026-04-17 12:48 13.02583 17.18041 36749 ft 451 kts 66°
2026-04-17 12:49 13.04988 17.23949 36750 ft 451 kts 66°
2026-04-17 12:49 13.07398 17.29874 36750 ft 451 kts 66°
2026-04-17 12:50 13.09810 17.35805 36750 ft 451 kts 66°
2026-04-17 12:50 13.12232 17.41737 36750 ft 452 kts 65°
2026-04-17 12:51 13.14703 17.47597 36750 ft 452 kts 65°
2026-04-17 12:51 13.17180 17.53497 36750 ft 451 kts 65°
2026-04-17 12:52 13.19652 17.59396 36750 ft 451 kts 65°
2026-04-17 12:52 13.22141 17.65339 36750 ft 451 kts 66°
2026-04-17 12:53 13.24596 17.71211 36750 ft 451 kts 66°
2026-04-17 12:53 13.27067 17.77123 36750 ft 451 kts 66°
2026-04-17 12:54 13.29542 17.83052 36764 ft 451 kts 66°
2026-04-17 12:54 13.32003 17.88950 36777 ft 451 kts 66°
2026-04-17 12:55 13.34471 17.94869 36790 ft 452 kts 66°
2026-04-17 12:55 13.36923 18.00755 36803 ft 452 kts 66°
2026-04-17 12:56 13.39391 18.06682 36804 ft 452 kts 66°
2026-04-17 12:56 13.41840 18.12571 36804 ft 451 kts 66°
2026-04-17 12:57 13.44294 18.18508 36804 ft 451 kts 66°
2026-04-17 12:57 13.46690 18.24451 36804 ft 451 kts 66°
2026-04-17 12:58 13.49086 18.30377 36804 ft 452 kts 66°
2026-04-17 12:58 13.51486 18.36313 36804 ft 451 kts 66°
2026-04-17 12:59 13.53887 18.42256 36803 ft 451 kts 66°
2026-04-17 12:59 13.56275 18.48171 36804 ft 451 kts 66°
2026-04-17 13:00 13.58675 18.54118 36804 ft 451 kts 66°
2026-04-17 13:00 13.61074 18.60071 36804 ft 451 kts 66°
2026-04-17 13:01 13.63457 18.65986 36803 ft 451 kts 66°
2026-04-17 13:01 13.65854 18.71939 36804 ft 451 kts 66°
2026-04-17 13:02 13.68250 18.77897 36804 ft 451 kts 66°
2026-04-17 13:02 13.70631 18.83820 36804 ft 451 kts 66°
2026-04-17 13:03 13.73026 18.89786 36804 ft 451 kts 66°
2026-04-17 13:03 13.74216 18.92750 36997 ft 445 kts 66°
2026-04-17 13:03 13.75380 18.95654 37226 ft 441 kts 66°
2026-04-17 13:04 13.77712 19.01469 37237 ft 444 kts 67°
2026-04-17 13:04 13.80068 19.07349 37237 ft 447 kts 67°
2026-04-17 13:05 13.82438 19.13268 37236 ft 449 kts 67°
2026-04-17 13:05 13.84818 19.19218 37235 ft 451 kts 68°
2026-04-17 13:06 13.87186 19.25143 37235 ft 450 kts 68°
2026-04-17 13:06 13.89563 19.31095 37236 ft 450 kts 68°
2026-04-17 13:07 13.91923 19.37011 37236 ft 450 kts 68°
2026-04-17 13:07 13.94299 19.42971 37236 ft 450 kts 68°
2026-04-17 13:08 13.96650 19.48875 37236 ft 450 kts 68°
2026-04-17 13:08 13.99021 19.54832 37236 ft 450 kts 68°
2026-04-17 13:09 14.01393 19.60796 37236 ft 450 kts 68°
2026-04-17 13:09 14.03753 19.66735 37236 ft 450 kts 68°
2026-04-17 13:10 14.06105 19.72657 37236 ft 450 kts 68°
2026-04-17 13:10 14.08474 19.78628 37236 ft 450 kts 68°
2026-04-17 13:11 14.10820 19.84548 37236 ft 450 kts 68°
2026-04-17 13:11 14.13180 19.90506 37236 ft 450 kts 68°
2026-04-17 13:12 14.15534 19.96455 37236 ft 450 kts 68°
2026-04-17 13:12 14.19072 20.05404 37236 ft 450 kts 68°
2026-04-17 13:13 14.21425 20.11364 37236 ft 450 kts 68°
2026-04-17 13:13 14.23767 20.17298 37236 ft 450 kts 68°
2026-04-17 13:14 14.26125 20.23278 37236 ft 450 kts 68°
2026-04-17 13:14 14.28463 20.29214 37236 ft 450 kts 68°
2026-04-17 13:15 14.30810 20.35177 37236 ft 449 kts 68°
2026-04-17 13:15 14.33156 20.41142 37236 ft 449 kts 68°
2026-04-17 13:16 14.35483 20.47065 37236 ft 449 kts 68°
2026-04-17 13:16 14.37828 20.53039 37236 ft 449 kts 68°
2026-04-17 13:17 14.40154 20.58967 37236 ft 449 kts 68°
2026-04-17 13:17 14.42501 20.64956 37236 ft 449 kts 68°
2026-04-17 13:18 14.44828 20.70901 37236 ft 449 kts 68°
2026-04-17 13:18 14.46000 20.73897 37049 ft 454 kts 68°
2026-04-17 13:18 14.47171 20.76891 37008 ft 449 kts 68°
2026-04-17 13:19 14.49484 20.82809 37001 ft 447 kts 68°
2026-04-17 13:19 14.51812 20.88768 37000 ft 449 kts 68°
2026-04-17 13:20 14.54146 20.94751 37000 ft 451 kts 68°
2026-04-17 13:20 14.56479 21.00733 36999 ft 451 kts 69°
2026-04-17 13:21 14.58814 21.06729 36999 ft 451 kts 69°
2026-04-17 13:21 14.61142 21.12711 37000 ft 450 kts 69°
2026-04-17 13:22 14.63464 21.18683 36999 ft 450 kts 69°
2026-04-17 13:22 14.65779 21.24642 36999 ft 450 kts 69°
2026-04-17 13:23 14.68102 21.30626 36999 ft 450 kts 69°
2026-04-17 13:23 14.70422 21.36609 36999 ft 450 kts 69°
2026-04-17 13:24 14.72749 21.42613 36999 ft 450 kts 69°
2026-04-17 13:24 14.75067 21.48600 37000 ft 450 kts 69°
2026-04-17 13:25 14.77370 21.54555 37000 ft 450 kts 69°
2026-04-17 13:25 14.79691 21.60561 37000 ft 450 kts 69°
2026-04-17 13:26 14.82016 21.66581 37000 ft 450 kts 69°
2026-04-17 13:26 14.84322 21.72556 36999 ft 450 kts 69°
2026-04-17 13:27 14.86629 21.78540 36999 ft 450 kts 69°
2026-04-17 13:27 14.88944 21.84550 37000 ft 450 kts 69°
2026-04-17 13:28 14.91237 21.90511 36999 ft 450 kts 69°
2026-04-17 13:28 14.93547 21.96519 37000 ft 449 kts 69°
2026-04-17 13:29 14.95842 22.02494 36999 ft 448 kts 69°
2026-04-17 13:29 14.98134 22.08466 37000 ft 448 kts 70°
2026-04-17 13:30 15.00422 22.14434 37000 ft 448 kts 70°
2026-04-17 13:30 15.02703 22.20392 36999 ft 447 kts 70°
2026-04-17 13:31 15.04989 22.26388 37000 ft 447 kts 70°
2026-04-17 13:31 15.07267 22.32345 37000 ft 447 kts 69°
2026-04-17 13:32 15.09554 22.38289 36999 ft 447 kts 69°
2026-04-17 13:32 15.11939 22.44233 37000 ft 447 kts 66°
2026-04-17 13:33 15.14627 22.50007 37000 ft 447 kts 65°
2026-04-17 13:33 15.17256 22.55820 36999 ft 447 kts 66°
2026-04-17 13:34 15.19871 22.61631 36999 ft 447 kts 66°
2026-04-17 13:34 15.22486 22.67445 36999 ft 448 kts 66°
2026-04-17 13:35 15.25117 22.73250 36999 ft 447 kts 66°
2026-04-17 13:35 15.27765 22.79078 37000 ft 447 kts 66°
2026-04-17 13:36 15.30368 22.84895 37000 ft 448 kts 67°
2026-04-17 13:36 15.32959 22.90704 36999 ft 446 kts 66°
2026-04-17 13:37 15.35574 22.96518 36999 ft 444 kts 67°
2026-04-17 13:37 15.38162 23.02303 37000 ft 442 kts 67°
2026-04-17 13:38 15.40719 23.08040 36999 ft 441 kts 67°
2026-04-17 13:38 15.43294 23.13820 37000 ft 441 kts 67°
2026-04-17 13:39 15.45850 23.19562 37000 ft 442 kts 67°
2026-04-17 13:39 15.48413 23.25326 36999 ft 442 kts 67°
2026-04-17 13:40 15.50979 23.31099 36999 ft 442 kts 67°
2026-04-17 13:40 15.53535 23.36856 36999 ft 442 kts 67°
2026-04-17 13:41 15.56101 23.42640 37000 ft 442 kts 67°
2026-04-17 13:41 15.58652 23.48393 37000 ft 442 kts 67°
2026-04-17 13:42 15.61209 23.54167 37000 ft 442 kts 67°
2026-04-17 13:42 15.63777 23.59970 36999 ft 442 kts 67°
2026-04-17 13:43 15.66335 23.65754 37000 ft 442 kts 67°
2026-04-17 13:43 15.68883 23.71520 36999 ft 442 kts 67°
2026-04-17 13:44 15.71426 23.77281 36999 ft 442 kts 67°
2026-04-17 13:44 15.73973 23.83055 37000 ft 442 kts 67°
2026-04-17 13:45 15.76522 23.88840 37000 ft 442 kts 67°
2026-04-17 13:45 15.79077 23.94643 37000 ft 442 kts 67°
2026-04-17 13:46 15.82332 24.00039 36999 ft 446 kts 47°
2026-04-17 13:46 15.84680 24.02109 37003 ft 449 kts 35°
2026-04-17 13:46 15.87310 24.03805 37002 ft 451 kts 32°
2026-04-17 13:47 15.92653 24.07198 36999 ft 450 kts 34°
2026-04-17 13:47 15.97924 24.10632 36999 ft 450 kts 33°
2026-04-17 13:48 16.03225 24.14044 36999 ft 450 kts 33°
2026-04-17 13:48 16.08530 24.17460 36999 ft 450 kts 33°
2026-04-17 13:49 16.13843 24.20877 36999 ft 449 kts 33°
2026-04-17 13:49 16.19159 24.24295 37000 ft 449 kts 33°
2026-04-17 13:50 16.24447 24.27697 37000 ft 450 kts 33°
2026-04-17 13:50 16.29735 24.31100 36999 ft 450 kts 33°
2026-04-17 13:51 16.35055 24.34525 37000 ft 450 kts 33°
2026-04-17 13:51 16.40346 24.37934 37000 ft 450 kts 33°
2026-04-17 13:52 16.45624 24.41337 37000 ft 450 kts 33°
2026-04-17 13:52 16.50954 24.44774 36999 ft 449 kts 33°
2026-04-17 13:53 16.56248 24.48192 36999 ft 449 kts 33°
2026-04-17 13:53 16.61521 24.51598 37000 ft 450 kts 33°
2026-04-17 13:54 16.69494 24.56752 36999 ft 450 kts 33°
2026-04-17 13:55 16.77426 24.61884 37000 ft 449 kts 33°
2026-04-17 13:56 16.87996 24.68731 37000 ft 449 kts 33°
2026-04-17 13:56 16.93279 24.72156 36999 ft 450 kts 33°
2026-04-17 13:57 16.98604 24.75611 36999 ft 450 kts 33°
2026-04-17 13:58 17.06562 24.80779 37000 ft 455 kts 33°
2026-04-17 13:58 17.14646 24.86035 36999 ft 459 kts 33°
2026-04-17 13:59 17.22722 24.91290 36999 ft 458 kts 33°